Algiers Airport, Algeria

6:19 PM CET on December 15, 2017 (GMT +0100)
Algiers Airport

Weather History for DAAG - October, 2012

Change the Weather History Date:

Tuesday, October 9, 2012

  Actual Average Record
Temperature  
Mean Temperature 73 °F -  
Max Temperature 87 °F 75 °F - ()
Min Temperature 59 °F 55 °F - ()
Cooling Degree Days 8    
Growing Degree Days 23 (Base 50)    
Moisture  
Dew Point 60 °F    
Average Humidity 68    
Maximum Humidity 99    
Minimum Humidity 29    
Precipitation  
Precipitation 0.00 in 0.11 in - ()
Sea Level Pressure  
Sea Level Pressure 30.05 in    
Wind  
Wind Speed 3 mph ()    
Max Wind Speed 10 mph    
Max Gust Speed -    
Visibility 5.8 miles    
Events      
T = Trace of Precipitation, MM = Missing Value Source: Averaged Metar Reports

Daily Weather History Graph

Daily Weather History Graph

Search for Another Location

Airport or City:

Trip Planner

Search our weather history database for the weather conditions in past years. The results will help you decide how hot, cold, wet, or windy it might be!

Date:

Astronomy

Oct. 09, 2012 Rise Set
Actual Time 6:49 AM CET 6:18 PM CET
Civil Twilight 6:23 AM CET 6:44 PM CET
Nautical Twilight 5:53 AM CET 7:14 PM CET
Astronomical Twilight 5:23 AM CET 7:44 PM CET
Moon 12:20 AM CET (10/9) 2:27 PM CET (10/9)
Length of Visible Light 12h 20m
Length of Day
11h 29m
Last Quarter, 39% of the Moon is Illuminated
Oct 9
Last Quarter
Oct 15
New
Oct 22
First Quarter
Oct 29
Full
Nov 7
Last Quarter

Hourly Weather History & Observations

Time (CET) Temp. Heat Index Dew Point Humidity Pressure Visibility Wind Dir Wind Speed Gust Speed Precip Events Conditions
12:00 AM 62.6 °F - 60.8 °F 94% 30.06 in 5.0 mi South 2.3 mph - N/A   Partly Cloudy
12:30 AM 62.6 °F - 60.8 °F 94% 30.06 in 5.0 mi Calm Calm - N/A   Partly Cloudy
1:00 AM 62.6 °F - 60.8 °F 94% 30.06 in 5.0 mi Calm Calm - N/A   Partly Cloudy
1:30 AM 62.6 °F - 60.8 °F 94% 30.06 in 5.0 mi Calm Calm - N/A   Partly Cloudy
2:00 AM 62.6 °F - 59.0 °F 88% 30.06 in 5.0 mi Variable 1.2 mph - N/A   Partly Cloudy
2:30 AM 60.8 °F - 59.0 °F 94% 30.04 in 5.0 mi Calm Calm - N/A   Partly Cloudy
3:00 AM 62.6 °F - 60.8 °F 94% 30.04 in 5.0 mi SSE 2.3 mph - N/A   Partly Cloudy
3:30 AM 60.8 °F - 59.0 °F 94% 30.04 in 5.0 mi Calm Calm - N/A   Partly Cloudy
4:00 AM 60 °F - 58 °F 93% 30.05 in 5 mi Calm Calm - -   Scattered Clouds
4:00 AM 60.8 °F - 59.0 °F 94% 30.04 in 5.0 mi Calm Calm - N/A   Partly Cloudy
4:30 AM 60.8 °F - 59.0 °F 94% 30.04 in 5.0 mi Calm Calm - N/A   Partly Cloudy
5:00 AM 60.8 °F - 59.0 °F 94% 30.04 in 5.0 mi SW 2.3 mph - N/A   Partly Cloudy
5:30 AM 60.8 °F - 59.0 °F 94% 30.06 in 5.0 mi SW 2.3 mph - N/A   Partly Cloudy
6:00 AM 60.8 °F - 59.0 °F 94% 30.06 in 5.0 mi Calm Calm - N/A   Partly Cloudy
6:30 AM 60.8 °F - 59.0 °F 94% 30.06 in 3.1 mi Calm Calm - N/A   Partly Cloudy
7:00 AM 60 °F - 60 °F 99% 30.08 in 2 mi WSW 2.3 mph - -   Mist
7:00 AM 60.8 °F - 59.0 °F 94% 30.06 in 1.6 mi WSW 2.3 mph - N/A   Mist
7:30 AM 62.6 °F - 60.8 °F 94% 30.06 in 1.9 mi West 4.6 mph - N/A   Mist
8:00 AM 64.4 °F - 62.6 °F 94% 30.09 in 2.5 mi WSW 3.5 mph - N/A   Mist
8:30 AM 68.0 °F - 62.6 °F 83% 30.09 in 2.5 mi South 3.5 mph - N/A   Mist
9:00 AM 75.2 °F - 62.6 °F 65% 30.09 in - SSW 3.5 mph - N/A   Clear
9:30 AM 78.8 °F - 60.8 °F 54% 30.09 in - SW 4.6 mph - N/A   Clear
10:00 AM 80 °F - 58 °F 36% 30.11 in 9 mi WSW 5.8 mph - -  
10:00 AM 80.6 °F 80.8 °F 57.2 °F 45% 30.09 in - WSW 5.8 mph - N/A   Clear
10:30 AM 82.4 °F 82.0 °F 57.2 °F 42% 30.09 in - WSW 4.6 mph - N/A   Clear
11:00 AM 84.2 °F 83.5 °F 57.2 °F 40% 30.09 in - WSW 4.6 mph - N/A   Clear
11:30 AM 86.0 °F 85.4 °F 59.0 °F 40% 30.09 in - West 4.6 mph - N/A   Clear
12:00 PM 87.8 °F 87.1 °F 59.0 °F 38% 30.06 in - NNW 5.8 mph - N/A   Clear
12:30 PM 86.0 °F 86.1 °F 60.8 °F 43% 30.06 in - NNW 5.8 mph - N/A   Clear
1:00 PM 86 °F - 58 °F 29% 30.06 in 12 mi North 10.4 mph - -  
1:00 PM 86.0 °F 85.4 °F 59.0 °F 40% 30.06 in - North 10.4 mph - N/A   Clear
1:30 PM 86.0 °F 85.4 °F 59.0 °F 40% 30.04 in - North 10.4 mph - N/A   Clear
2:00 PM 86.0 °F 85.4 °F 59.0 °F 40% 30.04 in - North 10.4 mph - N/A   Clear
2:30 PM 86.0 °F 84.9 °F 57.2 °F 37% 30.04 in - North 9.2 mph - N/A   Clear
3:00 PM 86.0 °F 84.9 °F 57.2 °F 37% 30.04 in - North 10.4 mph - N/A   Clear
3:30 PM 86.0 °F 85.4 °F 59.0 °F 40% 30.04 in - North 8.1 mph - N/A   Clear
4:00 PM 85 °F - 58 °F 29% 30.02 in 16 mi North 8.1 mph - -   Clear
4:00 PM 84.2 °F 83.5 °F 57.2 °F 40% 30.01 in - North 8.1 mph - N/A   Clear
4:30 PM 84.2 °F 83.5 °F 57.2 °F 40% 30.01 in - North 6.9 mph - N/A   Clear
5:00 PM 82.4 °F 82.0 °F 57.2 °F 42% 30.01 in - North 6.9 mph - N/A   Clear
5:30 PM 82.4 °F 82.9 °F 60.8 °F 48% 30.01 in - North 6.9 mph - N/A   Clear
6:00 PM 80.6 °F 81.5 °F 60.8 °F 51% 30.01 in - ENE 6.9 mph - N/A   Clear
6:30 PM 77.0 °F - 60.8 °F 57% 30.04 in - ENE 5.8 mph - N/A   Clear
7:00 PM 76 °F - 62 °F 53% 30.04 in 12 mi ENE 4.6 mph - -   Scattered Clouds
7:00 PM 75.2 °F - 62.6 °F 65% 30.04 in - ENE 4.6 mph - N/A   Clear
7:30 PM 75.2 °F - 62.6 °F 65% 30.04 in - NE 4.6 mph - N/A   Clear
8:00 PM 71.6 °F - 62.6 °F 73% 30.04 in - NE 4.6 mph - N/A   Clear
8:30 PM 71.6 °F - 60.8 °F 69% 30.04 in - Variable 1.2 mph - N/A   Clear
9:00 PM 69.8 °F - 60.8 °F 73% 30.04 in - Variable 1.2 mph - N/A   Clear
9:30 PM 68.0 °F - 59.0 °F 73% 30.04 in - Calm Calm - N/A   Clear
10:00 PM 66 °F - 59 °F 72% 30.04 in 12 mi South 2.3 mph - -  
10:00 PM 66.2 °F - 59.0 °F 78% 30.04 in - South 2.3 mph - N/A   Clear
10:30 PM 64.4 °F - 59.0 °F 83% 30.04 in - South 2.3 mph - N/A   Clear
11:00 PM 64.4 °F - 59.0 °F 83% 30.01 in - Calm Calm - N/A   Clear
11:30 PM 62.6 °F - 59.0 °F 88% 30.01 in - Calm Calm - N/A   Clear